Find Local Weather

World > North America > United States > Michigan

Grand Haven, Michigan Regional Weather

Lat: 43.06N, Lon: 86.22W
Wx Zone: MIZ056
Warning FLW WEATHER ALERT - (More Info. Click Here) Warning
Feedback
Expires:201809212200;;001967
ASUS43 KDTX 212110
RWRMI 
MICHIGAN HOURLY REGIONAL WEATHER ROUNDUP
NATIONAL WEATHER SERVICE DETROIT/PONTIAC MI
500 PM EDT FRI SEP 21 2018

NOTE: "FAIR" INDICATES FEW OR NO CLOUDS BELOW 12,000 FEET WITH NO
SIGNIFICANT WEATHER AND/OR OBSTRUCTION TO VISIBILITY.


MIZ043>046-050>051-056>058-064>065-071>073-077>080-212200-
SOUTHWEST LOWER MICHIGAN
  
CITY           SKY/WX    TMP DP  RH WIND       PRES   REMARKS
BATTLE CREEK   FAIR      73  56  54 W23G32    29.95R                  
BENTON HARBOR  FAIR      71  57  61 W17G28    30.00R                  
BIG RAPIDS     PTSUNNY   66  51  59 W21G31    29.91R                  
COLDWATER      PTSUNNY   79  52  39 W16G24    29.93R                  
FREMONT        CLOUDY    66  51  58 W24       29.94R                  
HOLLAND        CLOUDY    67  55  65 NW14G29   29.98R                  
GRAND RAPIDS   PTSUNNY   68  56  65 NW17G36   29.95R                  
IONIA          PTSUNNY   72  51  48 W25G35    29.91R                  
KALAMAZOO      FAIR      74  54  49 W17G26    29.95R                  
LUDINGTON      CLOUDY    66  51  60 W14G28    29.93R                  
MARSHALL       FAIR      79  54  42 W23G32    29.92R                  
MOUNT PLEASANT CLOUDY    68  49  51 W18G33    29.89R                  
MUSKEGON       PTSUNNY   68  52  56 W17G30    29.97R                  
SOUTH HAVEN    PTSUNNY   71  55  57 W12G20    29.99R                  
$$

SKY/WX - Weather  TMP - Temperature  DP - Dew Point  RH - Relative Humidity
WIND - Wind Direction/Speed PRES - Barometric Pressure